FW4179 Weather Reports


Display with metric or nautical units.
time (UTC)temp
F
wind
direction
speed
MPH
gust
MPH
rain 1hr
in
rain 24hr
in
rain mn
in
humidity
%
barometer
mb
20260902110058 72 0 0.0 0.0 0.00 0.00 0.00 96 1020.4
20260902104557 72 0 0.0 0.0 0.00 0.00 0.00 96 1020.3
20260902103051 72 0 0.0 0.0 0.00 0.00 0.00 96 1020.1
20260902101555 72 0 0.0 0.0 0.00 0.00 0.00 95 1020.1
20260902100109 72 0 0.0 0.0 0.00 0.00 0.00 95 1020.0
20260902094558 73 0 0.0 0.0 0.00 0.00 0.00 96 1019.9
20260902093057 73 0 0.0 0.0 0.00 0.00 0.00 96 1019.9
20260902091556 73 0 0.0 0.0 0.00 0.00 0.00 96 1019.7
20260902090055 73 0 0.0 0.0 0.00 0.00 0.00 96 1019.6
20260902084603 73 0 0.0 0.0 0.00 0.00 0.00 96 1019.6
20260902083100 73 0 0.0 0.0 0.00 0.00 0.00 94 1019.5
20260902081604 73 0 0.0 0.0 0.00 0.00 0.00 94 1019.3
20260902080100 73 0 0.0 0.0 0.00 0.00 0.00 93 1019.4
20260902074554 74 0 0.0 0.0 0.00 0.00 0.00 93 1019.4
20260902073059 74 0 0.0 0.0 0.00 0.00 0.00 92 1019.3
20260902071551 75 0 0.0 0.0 0.00 0.00 0.00 92 1019.4
20260902070106 75 0 0.0 0.0 0.00 0.00 0.00 92 1019.5
20260902064601 75 0 0.0 0.0 0.00 0.00 0.00 92 1019.4
20260902063054 75 0 0.0 0.0 0.00 0.00 0.00 91 1019.5
20260902061603 75 0 0.0 0.0 0.00 0.00 0.00 91 1019.5
20260902060107 76 0 0.0 0.0 0.00 0.00 0.00 91 1019.5
20260902054557 76 0 0.0 0.0 0.00 0.00 0.00 91 1019.6
20260902053106 76 0 0.0 0.0 0.00 0.00 0.00 91 1019.6
20260902051551 76 0 0.0 0.0 0.00 0.00 0.00 89 1019.7
20260902050104 77 0 0.0 0.0 0.00 0.00 0.00 87 1019.7
20260902044559 78 0 0.0 0.0 0.00 0.00 0.00 87 1019.6
20260902043104 78 0 0.0 0.0 0.00 0.00 0.00 86 1019.5
20260902041555 78 0 0.0 0.0 0.00 0.00 0.00 85 1019.8
20260902040103 79 0 0.0 0.0 0.00 0.00 0.00 85 1019.7
20260902034559 79 0 0.0 0.0 0.00 0.00 0.00 84 1019.8
20260902033102 79 0 0.0 0.0 0.00 0.00 0.00 84 1019.9
20260902031556 80 0 0.0 0.0 0.00 0.00 0.00 82 1019.8
20260902030100 81 0 0.0 0.0 0.00 0.00 0.00 80 1019.9
20260902024556 81 0 0.0 0.0 0.00 0.00 0.00 79 1019.8
20260902023055 81 0 0.0 0.0 0.00 0.00 0.00 79 1019.7
20260902021556 81 0 0.0 0.0 0.00 0.00 0.00 80 1019.6
20260902020055 82 0 0.0 1.0 0.00 0.00 0.00 79 1019.5
20260902014557 82 138 1.0 4.0 0.00 0.00 0.00 77 1019.5
20260902013055 83 0 0.0 0.0 0.00 0.00 0.00 76 1019.2
20260902011557 84 0 0.0 0.0 0.00 0.00 0.00 74 1019.1
20260902010105 85 0 0.0 0.0 0.00 0.00 0.00 72 1019.0
20260902004550 87 0 0.0 2.0 0.00 0.00 0.00 70 1018.9
20260902003050 88 0 0.0 0.0 0.00 0.00 0.00 64 1019.0
20260902001607 91 0 0.0 0.0 0.00 0.00 0.00 59 1018.9
20260902000059 93 0 0.0 0.0 0.00 0.00 0.00 55 1019.0
20260901234558 95 0 0.0 0.0 0.00 0.00 0.00 54 1019.0
20260901233050 96 0 0.0 0.0 0.00 0.00 0.00 50 1019.0
20260901231556 98 0 0.0 0.0 0.00 0.00 0.00 48 1019.1
20260901230058 97 0 0.0 0.0 0.00 0.00 0.00 48 1019.1
20260901224603 98 0 0.0 0.0 0.00 0.00 0.00 48 1019.1
20260901223058 98 0 0.0 1.0 0.00 0.00 0.00 48 1019.1
20260901221603 97 0 0.0 3.0 0.00 0.00 0.00 50 1019.0
20260901220054 97 0 0.0 4.0 0.00 0.00 0.00 50 1019.1
20260901214602 97 0 0.0 2.0 0.00 0.00 0.00 52 1019.1
20260901213102 96 0 0.0 3.0 0.00 0.00 0.00 50 1019.2
20260901211551 97 0 0.0 3.0 0.00 0.00 0.00 51 1019.2
20260901210115 95 0 0.0 2.0 0.00 0.00 0.00 47 1019.3
20260901204552 95 0 0.0 3.0 0.00 0.00 0.00 49 1019.3
20260901203053 95 0 1.0 4.0 0.00 0.00 0.00 53 1019.5
20260901201558 95 28 0.0 3.0 0.00 0.00 0.00 56 1019.7
20260901200105 94 0 1.0 3.0 0.00 0.00 0.00 56 1019.8
20260901194556 93 0 1.0 4.0 0.00 0.00 0.00 57 1019.9
20260901193100 93 0 0.0 6.0 0.00 0.00 0.00 56 1019.9
20260901191555 93 287 3.0 6.0 0.00 0.00 0.00 55 1020.3
20260901190057 92 161 2.0 4.0 0.00 0.00 0.00 57 1020.5
20260901184606 91 0 0.0 3.0 0.00 0.00 0.00 61 1020.6
20260901183106 89 0 0.0 0.0 0.00 0.00 0.00 63 1020.7
20260901181603 91 0 0.0 0.0 0.00 0.00 0.00 64 1020.8
20260901180056 92 0 0.0 5.0 0.00 0.00 0.00 60 1020.9
20260901174556 91 0 0.0 7.0 0.00 0.00 0.00 64 1021.1
20260901173058 90 0 0.0 7.0 0.00 0.00 0.00 65 1021.3
20260901171602 90 0 0.0 5.0 0.00 0.00 0.00 68 1021.5
20260901170058 89 0 1.0 5.0 0.00 0.00 0.00 64 1021.8
20260901164554 90 306 0.0 4.0 0.00 0.00 0.00 69 1021.9
20260901163103 89 0 0.0 7.0 0.00 0.00 0.00 67 1022.1
20260901161619 88 0 2.0 7.0 0.00 0.00 0.00 67 1022.2
20260901154614 87 323 0.0 3.0 0.00 0.00 0.00 72 1022.2
20260901153106 86 240 0.0 4.0 0.00 0.00 0.00 72 1022.2
20260901151600 85 0 0.0 0.0 0.00 0.00 0.00 75 1022.1
20260901150107 85 0 0.0 6.0 0.00 0.00 0.00 74 1022.3
20260901144600 84 0 0.0 2.0 0.00 0.00 0.00 79 1022.3
20260901143059 81 0 0.0 4.0 0.00 0.00 0.00 80 1022.3
20260901141559 80 0 0.0 3.0 0.00 0.00 0.00 82 1022.3
20260901134556 78 0 0.0 0.0 0.00 0.00 0.00 86 1022.4
20260901133101 76 0 0.0 0.0 0.00 0.00 0.00 88 1022.3
20260901131602 75 0 0.0 0.0 0.00 0.00 0.00 91 1022.4
20260901130056 74 0 0.0 0.0 0.00 0.00 0.00 94 1022.4
20260901124558 73 0 0.0 0.0 0.00 0.00 0.00 95 1022.2
20260901123057 72 0 0.0 0.0 0.00 0.00 0.00 96 1022.0
20260901121558 72 0 0.0 0.0 0.00 0.00 0.00 96 1021.8
20260901120108 71 0 0.0 0.0 0.00 0.00 0.00 97 1021.5
20260901114606 71 0 0.0 0.0 0.00 0.00 0.00 97 1021.3
20260901113100 71 0 0.0 0.0 0.00 0.00 0.00 97 1021.1
20260901111602 71 0 0.0 0.0 0.00 0.00 0.00 97 1021.0